Regional Weather Roundup
Issued by NWS

Home | Current Version | Previous Version | Text Only | Print | Product List | Glossary Off
Versions: 1 2 3 4 5 6 7 8 9 10 11 12 13 14 15 16 17 18 19 20 21 22 23 24 25 26 27 28 29 30 31 32 33 34 35 36 37 38 39 40 41 42 43 44 45 46 47 48 49 50

000
ASUS43 KMKX 271134
RWRWI

WISCONSIN REGIONAL WEATHER ROUNDUP
NATIONAL WEATHER SERVICE MILWAUKEE/SULLIVAN WI
700 AM CDT WED MAY 27 2015

NOTE: "FAIR" INDICATES FEW OR NO CLOUDS BELOW 12,000 FEET WITH NO
SIGNIFICANT WEATHER AND/OR OBSTRUCTIONS TO VISIBILITY.

WIZ001-002-006>008-014>016-023>028-271300-
NORTHWEST WISCONSIN

CITY           SKY/WX    TMP DP  RH WIND       PRES   REMARKS
SUPERIOR ARPT  CLOUDY    51  49  95 SW9       29.80R
ASHLAND        CLOUDY    53  52  96 SW8       29.81R
HAYWARD        CLOUDY    52  51  97 SW3       29.84R
SIREN          CLOUDY    52  51  98 SW5       29.85S
CUMBERLAND     CLOUDY    52  50  93 SW3       29.87R
RICE LAKE      CLOUDY    53  51  95 CALM      29.88R
CHETEK         CLOUDY    53  53 100 CALM      29.87R FOG
LADYSMITH      CLOUDY    55  54  97 W5        29.86R
EAU CLAIRE     CLOUDY    56  54  93 W6        29.86R
MENOMONIE      PTSUNNY   56  56  99 CALM      29.88R FOG
NEW RICHMOND   CLOUDY    54  54 100 CALM      29.88R FOG
OSCEOLA        FOG       52  52 100 CALM      29.90R VSB 3/4
$$

WIZ003>005-009-010-017-018-271300-
NORTH CENTRAL WISCONSIN

CITY           SKY/WX    TMP DP  RH WIND       PRES   REMARKS
MANITOWISH WTR LGT RAIN  52  52 100 NW6       29.80R
ARBOR VITAE    DRIZZLE   55  53  94 NW6       29.80R
WOODRUFF       DRIZZLE   55  53  94 NW6       29.80R
RHINELANDER    LGT RAIN  53  52  96 W5        29.80R
EAGLE RIVER    LGT RAIN  53  52  99 NW6       29.78R
LAND O LAKES   LGT RAIN  53  52  97 NW8       29.79R
PHILLIPS       LGT RAIN  52  52 100 CALM      29.82R
TOMAHAWK       DRIZZLE   52  51  95 W5        29.82R
MEDFORD        DRIZZLE   53  52  97 W7        29.83R
MERRILL        DRIZZLE   54  54 100 W5        29.82R
$$

WIZ029-030-035-036-043>047-271300-
CENTRAL WISCONSIN

CITY           SKY/WX    TMP DP  RH WIND       PRES   REMARKS
WAUSAU         CLOUDY    55  53  93 NW8       29.79R
MOSINEE        DRIZZLE   54  54 100 W12       29.82R
MARSHFIELD     CLOUDY    56  53  90 W13       29.83R
STEVENS POINT  CLOUDY    55  53  95 W9        29.83R
WAUPACA        CLOUDY    60  58  92 W10G17    29.81R
WAUTOMA        CLOUDY    60  60 100 W8        29.83R
WISC RAPIDS    CLOUDY    57  54  89 W8        29.84R
CAMP DOUGLAS   NOT AVBL
$$

WIZ011>013-019>022-031-037>040-048>050-271300-
NORTHEAST WISCONSIN

CITY           SKY/WX    TMP DP  RH WIND       PRES   REMARKS
ANTIGO         DRIZZLE   53  53  99 W9        29.79R
SHAWANO        LGT RAIN  59  56  91 W7        29.77R
OCONTO         CLOUDY    60  60 100 W8        29.73R
STURGEON BAY   CLOUDY    61  55  82 SW13G22   29.76R
GREEN BAY      CLOUDY    62  57  83 W14       29.76R
MANITOWOC      CLOUDY    63  58  83 W13       29.78R
APPLETON       CLOUDY    61  55  82 W13G21    29.78R
CLINTONVILLE   CLOUDY    59  55  88 W10       29.78R
OSHKOSH        CLOUDY    62  56  80 W8        29.80R
$$

WIZ032>034-041-042-053>061-271300-
SOUTHWEST WISCONSIN

CITY           SKY/WX    TMP DP  RH WIND       PRES   REMARKS
LA CROSSE      CLOUDY    60  56  86 W3        29.87R
SPARTA         CLOUDY    57  56  95 W5        29.87R
VIROQUA        CLOUDY    57  57 100 W7        29.88R
BOSCOBEL       CLOUDY    61  58  90 SW3       29.89R
PRAIRIE DU CHI CLOUDY    60  57  88 CALM      29.89R
PLATTEVILLE    CLOUDY    60  59  97 W8        29.90R
$$

WIZ056-057-062-063-064-067-068-271300-
SOUTH CENTRAL WISCONSIN

CITY           SKY/WX    TMP DP  RH WIND       PRES   REMARKS
REEDSBURG      CLOUDY    60  58  93 SW7       29.86R
BARABOO/DELLS  CLOUDY    59  56  89 SW5       29.86R
LONE ROCK      CLOUDY    61  58  90 W7        29.87R
MINERAL POINT  CLOUDY    61  59  94 W8        29.89R
MADISON        CLOUDY    61  57  87 VRB5      29.86R
MIDDLETON      CLOUDY    61  60  94 W7        29.87R
WATERTOWN      CLOUDY    59  59 100 SW5       29.86R
MONROE         CLOUDY    61  59  94 SW9       29.89R
JANESVILLE     CLOUDY    63  59  88 SW6       29.87R
$$

WIZ051-052-058>065-066-070>072-271300-
SOUTHEAST WISCONSIN

CITY           SKY/WX    TMP DP  RH WIND       PRES   REMARKS
MILWAUKEE      PTSUNNY   63  59  87 W9        29.85R
WAUKESHA       PTSUNNY   59  57  94 SW12      29.86R
MILWAUKEE/TIMM DRIZZLE   61  55  82 SW12      29.86R
RACINE         CLOUDY    65  60  84 SW9G17    29.88R
BURLINGTON     PTSUNNY   60  59  96 SW6       29.87R
KENOSHA        CLOUDY    64  61  90 SW12      29.87R
FOND DU LAC    CLOUDY    61  56  83 SW8       29.82R
SHEBOYGAN      CLOUDY    62  56  80 SW13      29.81R
WEST BEND      CLOUDY    61  55  82 W8        29.84R
JUNEAU         CLOUDY    59  57  94 SW9       29.86R
$$

LSZ147-162-271300-
LAKE SUPERIOR

STATION/POSITION TIME  TEMP    WIND        PRES    WAVE
                       AIR SEA DIR/SP/G            HT/PER
                 (UTC) (F)     (DEG/KT/KT) (MB)    (FT/S)
W MID LAKE BUOY  1050   41 37  230/ 10/ 12 1080.0R   0
DEVILS ISLAND    1100   50     230/ 15/ 16 1083.0R
PORT WING        0940   52     190/  6/  7 1088.0R
SAXON HARBOR     0900   51     190/  2/  6 1081.0R
$$

LMZ867-665-643>646-271300-
LAKE MICHIGAN

STATION/POSITION TIME  TEMP    WIND        PRES    WAVE
                       AIR SEA DIR/SP/G            HT/PER
                 (UTC) (F)     (DEG/KT/KT) (MB)    (FT/S)
CHAMBERS ISLAND  0900   58     190/  3/ 11 1034.0R
N MID LAKE BUOY  1050   43 37  210/ 17/ 19 1049.0R   5/ 6
NORTHPORT PIER   1020   59     270/ 10/ 16 1044.0R
SISTER BAY       1003   59     260/ 16/ 18   N/A
ALGOMA LAKESHORE 1038          250/ 12/ 21   N/A
KEWAUNEE LAKESHO 1100   63     250/ 12/ 17 1069.0R
SHEBOYGAN LAKESH 1100   62     230/ 13/ 15   N/A
PORT WASHINGTON  1040   62     260/  7/ 13   N/A
ATWATER BUOY     1100   61 45  230/ 10/ 12   N/A
MILWAUKEE LAKESH 1100   63     240/  9/ 12   N/A
S MID LAKE BUOY  1050   45 38  200/ 12/ 12   N/A     1/ 4
KENOSHA   LAKESH 1100   65     240/  9/ 17   N/A
$$

TC  - TEMPERATURE IN CELSIUS
VSB - VISIBILITY IN STATUTE MILES
WCI - WIND CHILL INDEX
HX  - HEAT INDEX




USA.gov is the U.S. government's official web portal to all federal, state and local government web resources and services.